Location: Copeville
(33.0796°N, 96.4155°W)
Time: 01:48:04
(UTC+00:00)

Oscar 11 - Pass Details

Date: 03 April 2023
Orbit: 609 x 619 km, 97.7° (Epoch: 07 June)

Event Time Altitude Azimuth Distance (km) Brightness Sun altitude
Rises 09:53:30 0° 30° (NNE) 2,877 11.3 -28.3°
Reaches altitude 10° 09:56:12 10° 48° (NE) 1,969 10.5 -27.8°
Maximum altitude 09:59:20 20° 95° (E) 1,440 9.5 -27.2°
Drops below altitude 10° 10:02:26 10° 142° (SE) 1,964 9.7 -26.6°
Enters shadow 10:03:38 - 152° (SSE) 2,339 10.0 -26.4°
